Flag for Cuba Weather past 2 weeks in Camagüey, Cuba

Now
77 °F

Passing clouds.


Feels Like: 78 °F
Forecast: 73 / 91 °F
Wind: 5 mph from Northeast

Location: Camaguey Aeropuerto

Current Time: Sep 20, 2014 at 12:38:45 AM

Latest Report: Sep 19, 2014 at 11:50 PM


Visibility: 6 mi

Pressure: 30.01 "Hg

Humidity: 83%

Dew point: 72 °F

Location of CamagüeyLocation

Historic Weather in Camagüey — Graph

°F

Camagüey temperature yesterday

Maximum temperature yesterday: 90 °F (at 12:50 PM)
Minimum temperature yesterday: 73 °F (at 12:53 AM)
Average temperature yesterday: 80 °F

Past Weeks' High & Low Weather Summary

 TemperatureHumidityPressure
High91 °F (Sep 17, 3:50 PM)94% (Sep 7, 5:52 AM)30.12 "Hg (Sep 7, 5:52 AM)
Low70 °F (Sep 7, 11:50 PM)41% (Sep 18, 4:50 PM)29.89 "Hg (Sep 18, 4:50 PM)
Average79 °F77%30.01 "Hg
* Reported Sep 4 10:50 PM — Sep 19 10:50 PM, Camagüey, Weather by CustomWeather, © 2014

Note: Actual official high and low records may vary slightly from our data, if they occured in-between our weather recording intervals... More about our weather records

Advertising

Camagüey weather history for previous 24 hours

 ConditionsComfort  
Time TempWeatherWind HumidityBarometerVisibility
10:50 PM
Sep 19
77 °FPassing clouds.6 mph83%29.98 "Hg6 mi
9:50 PM77 °FPassing clouds.7 mph79%30.01 "Hg6 mi
8:50 PM79 °FPassing clouds.5 mph79%29.98 "Hg6 mi
7:51 PM81 °FScattered clouds.3 mph79%29.95 "Hg6 mi
6:52 PM81 °FPassing clouds.3 mph79%29.95 "Hg6 mi
5:50 PM81 °FScattered clouds.12 mph74%29.92 "Hg6 mi
4:50 PM88 °FPartly sunny.3 mph52%29.92 "Hg6 mi
3:50 PM86 °FScattered clouds.14 mph55%29.92 "Hg6 mi
2:50 PM90 °FPartly sunny.3 mph49%29.92 "Hg6 mi
1:50 PM88 °FPartly sunny.7 mph52%29.95 "Hg6 mi
12:50 PM90 °FScattered clouds.6 mph49%29.98 "Hg6 mi
11:50 AM88 °FScattered clouds.6 mph52%30.01 "Hg6 mi
10:50 AM86 °FPassing clouds.2 mph59%30.01 "Hg6 mi
9:50 AM84 °FPassing clouds.5 mph62%30.01 "Hg6 mi
8:50 AM81 °FPassing clouds.5 mph74%30.01 "Hg6 mi
7:50 AM75 °FPassing clouds.3 mph89%29.98 "Hg6 mi
6:50 AM73 °FPassing clouds.3 mph89%29.98 "Hg6 mi
5:50 AM73 °FPassing clouds.1 mph89%29.95 "Hg5 mi
4:52 AM73 °FClear.5 mph89%29.95 "Hg6 mi
3:50 AM73 °FClear.5 mph89%29.95 "Hg6 mi
2:50 AM73 °FClear.3 mph83%29.95 "Hg6 mi
1:50 AM73 °FClear.6 mph83%29.98 "Hg6 mi
12:53 AM73 °FClear.1 mph89%29.98 "Hg6 mi
Weather by CustomWeather, © 2014

See weather overviewHow to use our weather pages